Regional Weather Roundup
Issued by NWS Albany, NY

Home | Current Version | Previous Version | Text Only | Print | Product List | Glossary On
Versions: 1 2 3 4 5 6 7 8 9 10 11 12 13 14 15 16 17 18 19 20 21 22 23 24 25 26 27 28 29 30 31 32 33 34 35 36 37 38 39 40 41 42 43 44 45 46 47 48 49 50
000
ASUS41 KALY 210710
RWRALY

NEW YORK STATE HOURLY WEATHER ROUNDUP
NATIONAL WEATHER SERVICE ALBANY NY
300 AM EDT SUN SEP 21 2014

NOTE: "FAIR" INDICATES FEW OR NO CLOUDS BELOW 12,000 FEET WITH NO
SIGNIFICANT WEATHER AND/OR NO OBSTRUCTIONS TO VISIBILITY.

NYZ032-033-038>043-046>054-057>066-NYZ062>081-210800-
EAST


CITY           SKY/WX    TMP DP  RH WIND       PRES   REMARKS
ALBANY         CLEAR     63  58  83 S8        29.95F
GLENS FALLS    PTCLDY    55  53  93 CALM      29.94F
POUGHKEEPSIE   CLOUDY    62  60  93 CALM      29.97F
MONTGOMERY     CLOUDY    59  56  89 CALM      29.98F
WHITE PLAINS   LGT RAIN  64  63  96 CALM      29.99F FOG
ISLIP          RAIN      68  66  94 SE14      29.96F FOG
NEW YORK CITY  RAIN      67  65  93 CALM      29.98F FOG
CENTRAL PARK   HVY RAIN  67  64  90 CALM      30.01F FOG
$$

NYZ005>009-017-018-044>046-055-056-210800-
CENTRAL


CITY           SKY/WX    TMP DP  RH WIND       PRES   REMARKS
FULTON         CLEAR     67  56  67 S9        29.81F
SYRACUSE       PTCLDY    69  57  65 S20G31    29.81F
ROME           PTCLDY    65  57  75 S6G18     29.87F
ELMIRA         CLEAR     65  57  75 W7        29.88F
BINGHAMTON     CLEAR     60  55  83 S9G16     29.94F
MONTICELLO     CLOUDY    57  55  94 E3        30.01F
$$

NYZ026>034-041>043-210800-
NORTH


CITY           SKY/WX    TMP DP  RH WIND       PRES   REMARKS
WATERTOWN      MOCLDY    70  55  59 S13G29    29.75F
FORT DRUM      NOT AVBL
MASSENA        CLOUDY    69  58  67 S15G23    29.73F
SARANAC LAKE   PTCLDY    62  55  77 SW13      29.84F
PLATTSBURGH    PTCLDY    63  57  81 S16       29.81F
$$

NYZ001>004-010>016-019>021-210800-
WEST


CITY           SKY/WX    TMP DP  RH WIND       PRES   REMARKS
NIAGARA FALLS  CLOUDY    70  61  73 SW12      29.74F
BUFFALO        CLOUDY    71  60  68 SW15      29.75F
DUNKIRK        CLOUDY    69  61  75 SW9       29.77F
JAMESTOWN      MOCLDY    64  61  88 S8        29.83F
WELLSVILLE     CLEAR     63  55  75 S12G21    29.89F
ROCHESTER      MOCLDY    70  59  68 SW16      29.76F
PENN YAN       CLEAR     65  56  72 S10       29.83F
$$

             KEY
       WCI = WIND CHILL INDEX
       VSB = VISIBILITY
       HX  = HEAT INDEX
$$



USA.gov is the U.S. government's official web portal to all federal, state and local government web resources and services.